Погода в Линце

Австрия     48°18′23″N   14°16′58″E
темп.,
°C
ветер,
м/с
пор.,
м/с
влажн.,
%
обл.,
%
осадки,
мм/ч
давл.,
гПа
погр.,
м
9 марта, вт
вт901:00−1всв269126 0.0 1022178
04:00−1всв25883 0.0 1021134
07:00−2всв25821 0.0 1021171
10:00+2в465833 0.0 1020588
13:00+5вюв345267 0.0 1019769
16:00+5вюв1254100 0.0 1017781
19:00+1в1269100 0.0 101923
22:000всв1269100 0.0 102131
10 марта, ср
ср1001:00−1вюв017199 0.0 102121
04:00−1з017698 0.0 102121
07:00−1вюв009699 0.6 102274
10:00+1юз1293100 1.3 1021171
13:00+2з4795100 1.6 1021437
16:00+5з467999 0.1 1021800
19:00+1зюз239271 0.2 102256
22:00−1зсз119243 0.0 102321
11 марта, чт
чт1101:00−1в119356 0.0 102321
04:00−2всв129550 0.0 102122
07:000в129171 0.0 102078
10:00+3всв1271100 0.0 1018262
13:00+7зсз1265100 0.0 1016430
16:00+5вюв2379100 0.0 1013110
19:00+3всв2284100 0.0 101322
22:00+3св128636 0.0 101326
12 марта, пт
пт1201:00+5зсз299767 5.8 1014388
04:00+5з7148897 0.5 1016956
07:00+5з6138786 1.0 1018869
10:00+8з6106716 0.2 10181519
13:00+9з576152 0.4 10171504
16:00+9з576790 0.3 10161264
19:00+5зюз268595 0.6 1017184
22:00+4з118567 0.0 101822
13 марта, сб
сб1301:00+2ю118568 0.0 101822
04:00+2юз118489 0.0 101722
07:00+3юз117994 0.0 101825
10:00+9з61159100 0.0 10161497
13:00+12зюз594794 0.0 10141859
16:00+12зюз234776 0.0 10121600
19:00+8юв116385 0.1 101222
22:00+7ююв1269100 0.0 101134